This is the latest recevied weather packets stored in our database for station/object K5KHP. If no packets are shown the sender has not sent any weather packets the latest 10 day(s).
| Time | Temp. | Humidity | Pressure | Rain* | Wind** | Luminosity | Snow |
|---|---|---|---|---|---|---|---|
| 1778176492 | 21.67° C | 68% | 1015.4 hPa | 0 mm | - | 651 W/m² | - |
| 1778176190 | 21.67° C | 68% | 1015.5 hPa | 0 mm | - | 617 W/m² | - |
| 1778175887 | 21.11° C | 67% | 1015.4 hPa | 0 mm | - | 650 W/m² | - |
| 1778175584 | 20.56° C | 68% | 1015.5 hPa | 0 mm | - | 670 W/m² | - |
| 1778175281 | 20.56° C | 68% | 1015.4 hPa | 0 mm | - | 681 W/m² | - |
| 1778174978 | 20.56° C | 69% | 1015.4 hPa | 0 mm | - | 626 W/m² | - |
| 1778174674 | 20.56° C | 69% | 1015.3 hPa | 0 mm | - | 638 W/m² | - |
| 1778174371 | 20.56° C | 69% | 1015.5 hPa | 0 mm | - | 607 W/m² | - |
| 1778174067 | 20° C | 70% | 1015.5 hPa | 0 mm | - | 573 W/m² | - |
| 1778173765 | 20° C | 71% | 1015.8 hPa | 0 mm | - | 539 W/m² | - |
| 1778173461 | 19.44° C | 73% | 1015.6 hPa | 0 mm | - | 525 W/m² | - |
| 1778173158 | 19.44° C | 73% | 1015.7 hPa | 0 mm | - | 524 W/m² | - |
| 1778172853 | 20° C | 73% | 1015.5 hPa | 0 mm | - | 524 W/m² | - |
| 1778172549 | 19.44° C | 73% | 1015.6 hPa | 0 mm | - | 488 W/m² | - |
| 1778172246 | 18.89° C | 76% | 1015.9 hPa | 0 mm | - | 474 W/m² | - |
| 1778171944 | 18.89° C | 75% | 1015.8 hPa | 0 mm | - | 473 W/m² | - |
| 1778171641 | 18.89° C | 76% | 1015.7 hPa | 0 mm | - | 459 W/m² | - |
| 1778171337 | 18.33° C | 77% | 1015.8 hPa | 0 mm | - | 439 W/m² | - |
| 1778171033 | 18.33° C | 77% | 1015.8 hPa | 0 mm | - | 406 W/m² | - |
| 1778170730 | 18.89° C | 76% | 1015.8 hPa | 0 mm | - | 394 W/m² | - |
| 1778170427 | 17.78° C | 79% | 1015.7 hPa | 0 mm | - | 382 W/m² | - |
| 1778170123 | 17.78° C | 79% | 1015.8 hPa | 0 mm | - | 352 W/m² | - |
| 1778169819 | 17.78° C | 79% | 1015.6 hPa | 0 mm | - | 327 W/m² | - |
| 1778169515 | 17.78° C | 80% | 1015.9 hPa | 0 mm | - | 286 W/m² | - |
| 1778169211 | 17.78° C | 79% | 1015.7 hPa | 0 mm | - | 277 W/m² | - |
* Rain latest hour (hover to see other rain measurements)
** Current wind speed in m/s (hover to see current wind gust speed)